Starlink 35757

operational
NORAD ID: 66270 Int'l Des: 2025-247 Owner: SPXS Country: US Constellation: starlink
NOTLE

About Starlink 35757

Description loading...

Live Position

Loading 3D Globe...

Upcoming Passes

Altitude History

Altitude vs Time

uPlot chart will show altitude changes over time

Two-Line Element Set

1 66270U 25247F 25350.85817981 .00024374 00000-0 61642-3 0 9995
2 66270 53.1589 218.1859 0001009 98.1101 262.0019 15.39668224 8372
Epoch: Dec 16, 2025 • Age: 15 hours

Current Status

Altitude 464.1 km
Velocity 7.63 km/s
Sub-Earth Point -48.16°S, 170.18°W
Launch Date Oct 31, 2025
Age 0.1 years
Type internet

Technical Details

Classification Payload
Mass 575.00 kg
Dry Mass 530.00 kg
Total Mass 575.00 kg
Length 0.30 m
Diameter 4.10 m
Span 29.00 m
Shape Box + pan
Manufacturer SPXS
Bus Type Starlink V2MO
Phase Status In Orbit
Owner/State SPXS/US

Large Constellations

Loading constellations...